ALK103 VCBI-VRMM

Flight info

Callsign ALK103
Flight time 1h 13m
Altitude 34000
Route LALUM2D TELIG M512 HOKEY HOKEY1B
Aircraft A333/H-SDE3GHIJ2J3J5M1RVWXY/LB2D1

Departure

Time 2026-04-25 07:34
Airport Bandaranaike International Colombo Airport (VCBI)

Arrival

Time 2026-04-25 08:47
Airport Velana International Airport (VRMM)
Time Latitude Longitude Altitude Speed Heading
2026-04-25 07:19 7.17529 79.88270 30 ft 0 kts 217°
2026-04-25 07:23 7.17531 79.88271 31 ft 2 kts 217°
2026-04-25 07:24 7.17554 79.88283 30 ft 4 kts 198°
2026-04-25 07:24 7.17573 79.88292 30 ft 4 kts 257°
2026-04-25 07:24 7.17573 79.88311 27 ft 4 kts 280°
2026-04-25 07:24 7.17566 79.88337 29 ft 4 kts 299°
2026-04-25 07:25 7.17550 79.88359 28 ft 4 kts 313°
2026-04-25 07:25 7.17534 79.88377 29 ft 1 kts 307°
2026-04-25 07:25 7.17533 79.88377 29 ft 0 kts 307°
2026-04-25 07:27 7.17535 79.88375 29 ft 1 kts 307°
2026-04-25 07:28 7.17544 79.88363 29 ft 3 kts 307°
2026-04-25 07:28 7.17553 79.88351 29 ft 2 kts 307°
2026-04-25 07:28 7.17569 79.88330 30 ft 5 kts 307°
2026-04-25 07:28 7.17593 79.88298 30 ft 8 kts 307°
2026-04-25 07:29 7.17629 79.88249 31 ft 6 kts 304°
2026-04-25 07:29 7.17630 79.88247 31 ft 0 kts 303°
2026-04-25 07:29 7.17630 79.88243 31 ft 2 kts 285°
2026-04-25 07:29 7.17624 79.88227 31 ft 4 kts 239°
2026-04-25 07:30 7.17589 79.88199 31 ft 9 kts 217°
2026-04-25 07:30 7.17533 79.88156 31 ft 11 kts 217°
2026-04-25 07:30 7.17461 79.88102 31 ft 12 kts 217°
2026-04-25 07:30 7.17428 79.88074 31 ft 4 kts 230°
2026-04-25 07:31 7.17426 79.88047 31 ft 4 kts 277°
2026-04-25 07:31 7.17439 79.88018 32 ft 5 kts 300°
2026-04-25 07:31 7.17460 79.87990 32 ft 5 kts 310°
2026-04-25 07:31 7.17481 79.87962 33 ft 5 kts 308°
2026-04-25 07:32 7.17504 79.87933 33 ft 4 kts 313°
2026-04-25 07:32 7.17525 79.87930 33 ft 4 kts
2026-04-25 07:32 7.17553 79.87946 33 ft 0 kts 37°
2026-04-25 07:32 7.17557 79.87950 34 ft 2 kts 37°
2026-04-25 07:33 7.17650 79.88019 33 ft 44 kts 37°
2026-04-25 07:33 7.17894 79.88208 33 ft 87 kts 38°
2026-04-25 07:33 7.18798 79.88905 35 ft 158 kts 38°
2026-04-25 07:33 7.19722 79.89616 497 ft 170 kts 35°
2026-04-25 07:34 7.20690 79.90312 1227 ft 170 kts 24°
2026-04-25 07:34 7.21454 79.90441 1706 ft 166 kts 349°
2026-04-25 07:34 7.22459 79.89809 2101 ft 185 kts 313°
2026-04-25 07:34 7.23329 79.88740 2495 ft 210 kts 311°
2026-04-25 07:35 7.24350 79.87577 2845 ft 234 kts 315°
2026-04-25 07:35 7.25543 79.86389 3288 ft 248 kts 318°
2026-04-25 07:35 7.26805 79.85153 3748 ft 258 kts 313°
2026-04-25 07:35 7.27935 79.83735 3942 ft 260 kts 308°
2026-04-25 07:36 7.29018 79.82281 3963 ft 260 kts 308°
2026-04-25 07:36 7.30107 79.80820 3970 ft 261 kts 308°
2026-04-25 07:36 7.31202 79.79366 3975 ft 260 kts 309°
2026-04-25 07:36 7.32294 79.77911 4018 ft 260 kts 306°
2026-04-25 07:37 7.33068 79.76261 4423 ft 265 kts 282°
2026-04-25 07:37 7.32981 79.74408 5125 ft 272 kts 251°
2026-04-25 07:37 7.31953 79.72834 5726 ft 279 kts 222°
2026-04-25 07:37 7.30440 79.71589 6433 ft 283 kts 216°
2026-04-25 07:38 7.28846 79.70405 7164 ft 287 kts 215°
2026-04-25 07:38 7.27235 79.69208 7956 ft 290 kts 215°
2026-04-25 07:38 7.25612 79.67986 8754 ft 292 kts 216°
2026-04-25 07:38 7.23982 79.66748 9567 ft 295 kts 216°
2026-04-25 07:39 7.22334 79.65489 10262 ft 301 kts 216°
2026-04-25 07:39 7.20614 79.64171 10607 ft 321 kts 216°
2026-04-25 07:39 7.18789 79.62772 10893 ft 339 kts 216°
2026-04-25 07:39 7.16751 79.61505 11346 ft 349 kts 202°
2026-04-25 07:40 7.14412 79.60832 11963 ft 352 kts 190°
2026-04-25 07:40 7.11982 79.60400 12634 ft 356 kts 188°
2026-04-25 07:40 7.09522 79.60003 13300 ft 360 kts 188°
2026-04-25 07:40 7.07030 79.59600 13921 ft 365 kts 188°
2026-04-25 07:41 7.04516 79.59188 14519 ft 368 kts 188°
2026-04-25 07:41 7.01986 79.58769 15138 ft 370 kts 188°
2026-04-25 07:41 6.99434 79.58344 15745 ft 373 kts 188°
2026-04-25 07:41 6.96861 79.57914 16349 ft 376 kts 188°
2026-04-25 07:42 6.94271 79.57481 16951 ft 379 kts 188°
2026-04-25 07:42 6.91659 79.57043 17531 ft 382 kts 187°
2026-04-25 07:42 6.89024 79.56601 18109 ft 385 kts 187°
2026-04-25 07:42 6.86368 79.56156 18595 ft 389 kts 188°
2026-04-25 07:43 6.83708 79.55577 19058 ft 394 kts 195°
2026-04-25 07:43 6.81161 79.54527 19524 ft 400 kts 207°
2026-04-25 07:43 6.78868 79.52918 19986 ft 406 kts 220°
2026-04-25 07:43 6.76925 79.50840 20447 ft 410 kts 229°
2026-04-25 07:44 6.75131 79.48591 20906 ft 414 kts 230°
2026-04-25 07:44 6.73347 79.46304 21367 ft 417 kts 230°
2026-04-25 07:44 6.71548 79.44001 21827 ft 419 kts 230°
2026-04-25 07:44 6.69759 79.41722 22293 ft 423 kts 230°
2026-04-25 07:45 6.67923 79.39393 22694 ft 427 kts 230°
2026-04-25 07:45 6.66072 79.37048 23128 ft 430 kts 230°
2026-04-25 07:45 6.64204 79.34685 23543 ft 433 kts 230°
2026-04-25 07:45 6.62322 79.32306 23932 ft 435 kts 230°
2026-04-25 07:46 6.60438 79.29925 24351 ft 436 kts 230°
2026-04-25 07:46 6.58547 79.27537 24777 ft 437 kts 230°
2026-04-25 07:46 6.56652 79.25143 25184 ft 438 kts 230°
2026-04-25 07:46 6.54752 79.22743 25585 ft 439 kts 230°
2026-04-25 07:47 6.52843 79.20334 25982 ft 441 kts 230°
2026-04-25 07:47 6.50931 79.17920 26378 ft 442 kts 230°
2026-04-25 07:47 6.49014 79.15500 26753 ft 443 kts 230°
2026-04-25 07:47 6.47089 79.13071 27152 ft 445 kts 230°
2026-04-25 07:48 6.45157 79.10634 27534 ft 446 kts 229°
2026-04-25 07:48 6.43219 79.08188 27921 ft 448 kts 229°
2026-04-25 07:48 6.41273 79.05733 28291 ft 450 kts 229°
2026-04-25 07:48 6.39322 79.03272 28663 ft 451 kts 229°
2026-04-25 07:49 6.37363 79.00801 29035 ft 452 kts 229°
2026-04-25 07:49 6.35398 78.98323 29404 ft 454 kts 229°
2026-04-25 07:49 6.33425 78.95836 29756 ft 456 kts 229°
2026-04-25 07:49 6.31444 78.93339 30049 ft 458 kts 229°
2026-04-25 07:50 6.29467 78.90819 30323 ft 460 kts 231°
2026-04-25 07:50 6.27727 78.88108 30586 ft 465 kts 240°
2026-04-25 07:50 6.26299 78.85181 30868 ft 467 kts 243°
2026-04-25 07:50 6.24950 78.82200 31145 ft 469 kts 243°
2026-04-25 07:51 6.23609 78.79206 31433 ft 471 kts 243°
2026-04-25 07:51 6.22264 78.76206 31703 ft 472 kts 243°
2026-04-25 07:51 6.20908 78.73193 31968 ft 474 kts 243°
2026-04-25 07:51 6.19552 78.70182 32329 ft 473 kts 243°
2026-04-25 07:52 6.18199 78.67182 32758 ft 470 kts 243°
2026-04-25 07:52 6.16854 78.64202 33242 ft 466 kts 243°
2026-04-25 07:52 6.15516 78.61240 33664 ft 465 kts 243°
2026-04-25 07:52 6.14136 78.58360 33832 ft 459 kts 238°
2026-04-25 07:53 6.12426 78.55732 33856 ft 442 kts 231°
2026-04-25 07:53 6.10567 78.53324 33856 ft 431 kts 229°
2026-04-25 07:53 6.06831 78.48639 33857 ft 430 kts 229°
2026-04-25 07:54 6.03094 78.43949 33857 ft 430 kts 229°
2026-04-25 07:54 5.99361 78.39253 33855 ft 430 kts 229°
2026-04-25 07:55 5.95629 78.34554 33855 ft 430 kts 229°
2026-04-25 07:55 5.91889 78.29847 33856 ft 431 kts 229°
2026-04-25 07:56 5.88147 78.25137 33856 ft 431 kts 229°
2026-04-25 07:56 5.84405 78.20429 33855 ft 431 kts 229°
2026-04-25 07:57 5.80660 78.15718 33857 ft 431 kts 229°
2026-04-25 07:57 5.76918 78.11011 33857 ft 431 kts 229°
2026-04-25 07:58 5.73174 78.06304 33854 ft 431 kts 229°
2026-04-25 07:58 5.69477 78.01553 33856 ft 432 kts 234°
2026-04-25 07:59 5.66943 77.96069 33856 ft 437 kts 250°
2026-04-25 07:59 5.65168 77.90236 33853 ft 437 kts 251°
2026-04-25 08:00 5.63413 77.84404 33855 ft 436 kts 250°
2026-04-25 08:00 5.61648 77.78581 33858 ft 436 kts 250°
2026-04-25 08:01 5.59878 77.72759 33855 ft 436 kts 250°
2026-04-25 08:01 5.58117 77.66973 33852 ft 436 kts 250°
2026-04-25 08:02 5.56329 77.61103 33854 ft 438 kts 250°
2026-04-25 08:02 5.54561 77.55300 33856 ft 437 kts 250°
2026-04-25 08:03 5.52784 77.49469 33855 ft 436 kts 250°
2026-04-25 08:03 5.51009 77.43647 33861 ft 436 kts 250°
2026-04-25 08:04 5.49233 77.37823 33858 ft 436 kts 250°
2026-04-25 08:04 5.47454 77.31995 33861 ft 436 kts 250°
2026-04-25 08:05 5.45677 77.26172 33859 ft 436 kts 250°
2026-04-25 08:05 5.43898 77.20348 33862 ft 436 kts 250°
2026-04-25 08:06 5.42122 77.14533 33860 ft 436 kts 250°
2026-04-25 08:06 5.40345 77.08719 33855 ft 436 kts 250°
2026-04-25 08:07 5.38568 77.02905 33860 ft 436 kts 250°
2026-04-25 08:07 5.36789 76.97090 33856 ft 436 kts 250°
2026-04-25 08:08 5.35010 76.91272 33859 ft 436 kts 250°
2026-04-25 08:08 5.33231 76.85459 33862 ft 436 kts 250°
2026-04-25 08:09 5.31451 76.79648 33857 ft 436 kts 250°
2026-04-25 08:09 5.29672 76.73839 33860 ft 436 kts 250°
2026-04-25 08:10 5.27893 76.68030 33857 ft 435 kts 250°
2026-04-25 08:10 5.26112 76.62222 33859 ft 435 kts 250°
2026-04-25 08:11 5.24344 76.56455 33860 ft 435 kts 250°
2026-04-25 08:11 5.22564 76.50652 33855 ft 435 kts 250°
2026-04-25 08:12 5.20784 76.44849 33862 ft 435 kts 250°
2026-04-25 08:12 5.19006 76.39058 33861 ft 434 kts 250°
2026-04-25 08:13 5.17228 76.33265 33858 ft 435 kts 250°
2026-04-25 08:14 5.14547 76.24539 33859 ft 437 kts 250°
2026-04-25 08:14 5.12760 76.18722 33860 ft 437 kts 250°
2026-04-25 08:15 5.10970 76.12901 33861 ft 437 kts 250°
2026-04-25 08:15 5.09183 76.07077 33865 ft 437 kts 250°
2026-04-25 08:16 5.07394 76.01250 33858 ft 437 kts 250°
2026-04-25 08:16 5.05605 75.95422 33859 ft 437 kts 250°
2026-04-25 08:17 5.03813 75.89588 33857 ft 437 kts 250°
2026-04-25 08:17 5.02022 75.83760 33859 ft 437 kts 250°
2026-04-25 08:18 5.00231 75.77935 33860 ft 437 kts 250°
2026-04-25 08:18 4.98440 75.72110 33855 ft 437 kts 250°
2026-04-25 08:19 4.96636 75.66289 33853 ft 436 kts 248°
2026-04-25 08:19 4.94024 75.60843 33855 ft 433 kts 238°
2026-04-25 08:20 4.91024 75.55612 33856 ft 433 kts 238°
2026-04-25 08:20 4.88018 75.50378 33858 ft 433 kts 238°
2026-04-25 08:21 4.85018 75.45141 33858 ft 433 kts 238°
2026-04-25 08:21 4.82019 75.39901 33856 ft 433 kts 238°
2026-04-25 08:22 4.79527 75.35549 33858 ft 433 kts 238°
2026-04-25 08:22 4.76035 75.29450 33858 ft 435 kts 238°
2026-04-25 08:23 4.73018 75.24181 33856 ft 436 kts 238°
2026-04-25 08:23 4.70003 75.18917 33854 ft 436 kts 238°
2026-04-25 08:23 4.68487 75.16271 33725 ft 443 kts 238°
2026-04-25 08:24 4.67469 75.14495 33318 ft 446 kts 238°
2026-04-25 08:24 4.65920 75.11792 32633 ft 448 kts 238°
2026-04-25 08:24 4.64362 75.09073 31914 ft 452 kts 238°
2026-04-25 08:24 4.62799 75.06343 31392 ft 450 kts 238°
2026-04-25 08:25 4.61244 75.03629 30903 ft 448 kts 238°
2026-04-25 08:25 4.59699 75.00932 30423 ft 446 kts 238°
2026-04-25 08:25 4.58157 74.98241 29928 ft 444 kts 238°
2026-04-25 08:25 4.56621 74.95561 29364 ft 442 kts 238°
2026-04-25 08:26 4.55094 74.92897 28841 ft 439 kts 238°
2026-04-25 08:26 4.53577 74.90253 28355 ft 436 kts 238°
2026-04-25 08:26 4.52071 74.87626 27845 ft 434 kts 238°
2026-04-25 08:26 4.50573 74.85014 27350 ft 431 kts 238°
2026-04-25 08:27 4.49082 74.82415 26863 ft 429 kts 238°
2026-04-25 08:27 4.47601 74.79832 26353 ft 427 kts 239°
2026-04-25 08:27 4.46125 74.77259 25858 ft 425 kts 239°
2026-04-25 08:27 4.44653 74.74694 25363 ft 424 kts 239°
2026-04-25 08:28 4.43189 74.72143 24883 ft 422 kts 239°
2026-04-25 08:28 4.41727 74.69595 24384 ft 421 kts 239°
2026-04-25 08:28 4.40269 74.67054 23877 ft 420 kts 239°
2026-04-25 08:28 4.38815 74.64521 23385 ft 419 kts 239°
2026-04-25 08:29 4.37363 74.61991 22835 ft 417 kts 239°
2026-04-25 08:29 4.35924 74.59484 22345 ft 414 kts 239°
2026-04-25 08:29 4.34495 74.56996 21842 ft 410 kts 239°
2026-04-25 08:29 4.33077 74.54525 21377 ft 407 kts 239°
2026-04-25 08:30 4.31670 74.52076 20897 ft 405 kts 239°
2026-04-25 08:30 4.30270 74.49637 20413 ft 402 kts 239°
2026-04-25 08:30 4.28878 74.47214 19943 ft 400 kts 239°
2026-04-25 08:30 4.27496 74.44809 19458 ft 398 kts 239°
2026-04-25 08:31 4.26120 74.42412 19012 ft 395 kts 240°
2026-04-25 08:31 4.24751 74.40029 18536 ft 393 kts 240°
2026-04-25 08:31 4.23390 74.37661 18076 ft 391 kts 240°
2026-04-25 08:31 4.22036 74.35304 17543 ft 389 kts 240°
2026-04-25 08:32 4.20696 74.32971 17079 ft 385 kts 240°
2026-04-25 08:32 4.19367 74.30659 16619 ft 381 kts 240°
2026-04-25 08:32 4.18051 74.28369 16159 ft 378 kts 240°
2026-04-25 08:32 4.16745 74.26097 15701 ft 375 kts 240°
2026-04-25 08:33 4.15465 74.23870 15247 ft 373 kts 240°
2026-04-25 08:33 4.14175 74.21627 14785 ft 370 kts 240°
2026-04-25 08:33 4.12894 74.19398 14345 ft 367 kts 240°
2026-04-25 08:33 4.11624 74.17190 13903 ft 365 kts 239°
2026-04-25 08:34 4.10362 74.14994 13433 ft 363 kts 239°
2026-04-25 08:34 4.09108 74.12814 12968 ft 360 kts 240°
2026-04-25 08:34 4.07866 74.10655 12518 ft 356 kts 240°
2026-04-25 08:34 4.06634 74.08512 12106 ft 353 kts 240°
2026-04-25 08:35 4.05421 74.06403 11772 ft 347 kts 240°
2026-04-25 08:35 4.04221 74.04317 11373 ft 344 kts 240°
2026-04-25 08:35 4.03030 74.02246 10976 ft 341 kts 240°
2026-04-25 08:35 4.01867 74.00226 10856 ft 328 kts 240°
2026-04-25 08:36 4.00753 73.98290 10752 ft 315 kts 240°
2026-04-25 08:36 3.99679 73.96422 10618 ft 304 kts 240°
2026-04-25 08:36 3.98638 73.94613 10467 ft 296 kts 240°
2026-04-25 08:36 3.97612 73.92830 10155 ft 296 kts 240°
2026-04-25 08:37 3.96583 73.91042 9810 ft 297 kts 240°
2026-04-25 08:37 3.95572 73.89239 9460 ft 297 kts 244°
2026-04-25 08:37 3.94972 73.87277 9118 ft 295 kts 263°
2026-04-25 08:37 3.94866 73.85230 8796 ft 294 kts 270°
2026-04-25 08:38 3.94871 73.83191 8463 ft 292 kts 271°
2026-04-25 08:38 3.94888 73.81163 8147 ft 291 kts 271°
2026-04-25 08:38 3.94901 73.79147 7827 ft 289 kts 270°
2026-04-25 08:38 3.94908 73.77143 7505 ft 287 kts 270°
2026-04-25 08:39 3.94912 73.75153 7184 ft 285 kts 270°
2026-04-25 08:39 3.94914 73.73175 6861 ft 283 kts 270°
2026-04-25 08:39 3.94916 73.71211 6550 ft 281 kts 270°
2026-04-25 08:39 3.94916 73.69259 6229 ft 280 kts 270°
2026-04-25 08:40 3.94917 73.67322 5888 ft 277 kts 270°
2026-04-25 08:40 3.94917 73.65391 5597 ft 275 kts 270°
2026-04-25 08:40 3.94915 73.63472 5329 ft 276 kts 270°
2026-04-25 08:40 3.94912 73.61548 4957 ft 276 kts 270°
2026-04-25 08:41 3.94909 73.59637 4618 ft 273 kts 270°
2026-04-25 08:41 3.94900 73.57745 4281 ft 270 kts 270°
2026-04-25 08:41 3.94878 73.55878 4032 ft 265 kts 268°
2026-04-25 08:41 3.94914 73.54078 3878 ft 253 kts 280°
2026-04-25 08:42 3.95601 73.52525 3833 ft 240 kts 310°
2026-04-25 08:42 3.96953 73.51681 3823 ft 227 kts 348°
2026-04-25 08:42 3.98464 73.51900 3757 ft 226 kts 23°
2026-04-25 08:42 3.99902 73.52581 3434 ft 230 kts 21°
2026-04-25 08:43 4.01413 73.53123 3132 ft 230 kts 13°
2026-04-25 08:43 4.02968 73.53345 2992 ft 224 kts 359°
2026-04-25 08:43 4.04465 73.53220 2892 ft 213 kts 352°
2026-04-25 08:43 4.05930 73.53194 2690 ft 207 kts 359°
2026-04-25 08:44 4.07352 73.53138 2381 ft 201 kts 353°
2026-04-25 08:44 4.08735 73.53005 2034 ft 193 kts 356°
2026-04-25 08:44 4.10056 73.53054 1686 ft 187 kts
2026-04-25 08:44 4.11326 73.53143 1338 ft 179 kts
2026-04-25 08:45 4.12527 73.53161 1099 ft 164 kts 356°
2026-04-25 08:45 4.13595 73.53111 892 ft 149 kts 355°
2026-04-25 08:45 4.14592 73.53094 707 ft 139 kts 359°
2026-04-25 08:45 4.15554 73.53086 583 ft 139 kts 360°
2026-04-25 08:46 4.16525 73.53084 459 ft 141 kts
2026-04-25 08:46 4.17504 73.53105 258 ft 140 kts
2026-04-25 08:46 4.18476 73.53099 64 ft 139 kts
2026-04-25 08:46 4.19390 73.53102 16 ft 111 kts 359°
2026-04-25 08:47 4.19963 73.53100 16 ft 55 kts
2026-04-25 08:47 4.20275 73.53100 16 ft 23 kts
2026-04-25 08:47 4.20328 73.53100 16 ft 1 kts 356°
2026-04-25 08:47 4.20340 73.53096 16 ft 2 kts 338°
2026-04-25 08:48 4.20356 73.53084 17 ft 3 kts 317°
2026-04-25 08:48 4.20365 73.53062 16 ft 4 kts 285°
2026-04-25 08:48 4.20367 73.53030 16 ft 5 kts 271°
2026-04-25 08:48 4.20368 73.52975 16 ft 10 kts 271°
2026-04-25 08:49 4.20360 73.52911 16 ft 9 kts 239°
2026-04-25 08:49 4.20303 73.52896 16 ft 9 kts 179°
2026-04-25 08:49 4.20231 73.52898 16 ft 11 kts 179°
2026-04-25 08:49 4.20146 73.52899 16 ft 13 kts 179°
2026-04-25 08:50 4.20049 73.52901 16 ft 15 kts 179°
2026-04-25 08:50 4.19941 73.52903 16 ft 16 kts 179°
2026-04-25 08:50 4.19821 73.52905 16 ft 18 kts 179°
2026-04-25 08:50 4.19692 73.52906 16 ft 19 kts 179°
2026-04-25 08:51 4.19553 73.52909 16 ft 20 kts 179°
2026-04-25 08:51 4.19406 73.52912 16 ft 22 kts 179°
2026-04-25 08:51 4.19252 73.52914 16 ft 23 kts 179°
2026-04-25 08:51 4.19090 73.52917 16 ft 24 kts 179°
2026-04-25 08:52 4.18920 73.52919 16 ft 25 kts 178°
2026-04-25 08:52 4.18767 73.52922 16 ft 16 kts 179°
2026-04-25 08:52 4.18700 73.52915 16 ft 5 kts 218°
2026-04-25 08:52 4.18687 73.52877 16 ft 6 kts 258°
2026-04-25 08:53 4.18656 73.52857 16 ft 6 kts 192°
2026-04-25 08:53 4.18607 73.52855 16 ft 8 kts 178°
2026-04-25 08:53 4.18545 73.52857 16 ft 10 kts 178°
2026-04-25 08:53 4.18478 73.52857 16 ft 5 kts 194°
2026-04-25 08:54 4.18460 73.52826 16 ft 5 kts 258°
2026-04-25 08:54 4.18460 73.52786 16 ft 5 kts 270°
2026-04-25 08:54 4.18460 73.52784 16 ft 0 kts 270°